Location: *
(49.4547°N, 7.9131°E)
Time: 21:11:08
(UTC+00:00)

GENESIS II - Pass Details

Date: 22 September 2019
Orbit: 480 x 550 km, 64.5° (Epoch: 18 October)

Event Time Altitude Azimuth Distance (km) Brightness Sun altitude
Rises 18:30:56 0° 319° (NW) 2,732 8.9 -11.1°
Reaches altitude 10° 18:33:09 10° 319° (NW) 1,834 7.9 -11.4°
Maximum altitude 18:37:17 84° 231° (SW) 558 4.3 -12.1°
Enters shadow 18:40:53 13° 144° (SE) 1,617 6.2 -12.7°
